NKS465 KDTW-KMCO

Flight info

Callsign NKS465
Flight time N/A
Altitude 36000
Route CLVIN3 STAZE VXV/N0439F350 TEUFL/N0441F360 WHYYT GRNCH5
Aircraft A320/M-SDE3FGHIRWY/LB1

Departure

Time N/A
Airport Detroit Metropolitan Wayne County Airport (KDTW)

Arrival

Time 2026-04-24 20:09
Airport Orlando International Airport (KMCO)
Time Latitude Longitude Altitude Speed Heading
2026-04-24 18:54 36.35319 -83.93086 35973 ft 467 kts 177°
2026-04-24 18:55 36.25619 -83.92293 35974 ft 468 kts 177°
2026-04-24 18:56 36.19120 -83.91772 35982 ft 468 kts 177°
2026-04-24 18:56 36.12629 -83.91247 35984 ft 468 kts 177°
2026-04-24 18:57 36.06123 -83.90730 35990 ft 468 kts 176°
2026-04-24 18:57 35.99628 -83.90209 35988 ft 468 kts 176°
2026-04-24 18:58 35.93129 -83.89669 35988 ft 468 kts 173°
2026-04-24 18:58 35.86850 -83.87706 35984 ft 466 kts 157°
2026-04-24 18:59 35.80824 -83.84733 35988 ft 466 kts 157°
2026-04-24 18:59 35.74785 -83.81791 35987 ft 467 kts 158°
2026-04-24 19:00 35.68746 -83.78857 35984 ft 467 kts 158°
2026-04-24 19:00 35.62699 -83.75927 35987 ft 467 kts 158°
2026-04-24 19:01 35.56658 -83.72989 35990 ft 467 kts 157°
2026-04-24 19:01 35.50659 -83.70080 36000 ft 466 kts 157°
2026-04-24 19:02 35.45602 -83.67642 36010 ft 466 kts 158°
2026-04-24 19:02 35.38598 -83.64258 36016 ft 465 kts 157°
2026-04-24 19:03 35.32576 -83.61351 36016 ft 465 kts 158°
2026-04-24 19:03 35.26554 -83.58451 36023 ft 465 kts 158°
2026-04-24 19:04 35.20546 -83.55556 36024 ft 464 kts 158°
2026-04-24 19:04 35.14529 -83.52667 36029 ft 464 kts 158°
2026-04-24 19:05 35.08511 -83.49789 36018 ft 464 kts 158°
2026-04-24 19:05 35.02500 -83.46912 36015 ft 463 kts 158°
2026-04-24 19:06 34.96536 -83.44070 36018 ft 463 kts 158°
2026-04-24 19:06 34.90539 -83.41213 36021 ft 462 kts 158°
2026-04-24 19:07 34.84543 -83.38352 36019 ft 462 kts 158°
2026-04-24 19:07 34.79568 -83.35982 36025 ft 461 kts 158°
2026-04-24 19:08 34.72575 -83.32669 36034 ft 460 kts 158°
2026-04-24 19:08 34.66610 -83.29845 36037 ft 460 kts 158°
2026-04-24 19:09 34.60645 -83.27014 36034 ft 460 kts 158°
2026-04-24 19:09 34.54724 -83.24211 36027 ft 460 kts 158°
2026-04-24 19:10 34.48772 -83.21408 36030 ft 459 kts 159°
2026-04-24 19:10 34.42827 -83.18614 36000 ft 458 kts 159°
2026-04-24 19:11 34.36883 -83.15823 35997 ft 457 kts 159°
2026-04-24 19:11 34.31959 -83.13508 36005 ft 457 kts 159°
2026-04-24 19:12 34.26040 -83.10726 35998 ft 456 kts 159°
2026-04-24 19:12 34.20120 -83.07952 36004 ft 455 kts 159°
2026-04-24 19:13 34.15215 -83.05656 35999 ft 455 kts 159°
2026-04-24 19:13 34.08322 -83.02439 35999 ft 454 kts 159°
2026-04-24 19:14 34.02427 -82.99690 36000 ft 454 kts 159°
2026-04-24 19:14 33.96572 -82.96960 35999 ft 454 kts 159°
2026-04-24 19:15 33.90688 -82.94216 36006 ft 453 kts 160°
2026-04-24 19:15 33.84803 -82.91488 36007 ft 453 kts 160°
2026-04-24 19:16 33.75984 -82.87414 36007 ft 453 kts 160°
2026-04-24 19:16 33.70111 -82.84694 36013 ft 452 kts 160°
2026-04-24 19:17 33.64235 -82.81973 36000 ft 452 kts 160°
2026-04-24 19:17 33.58360 -82.79268 36018 ft 452 kts 160°
2026-04-24 19:18 33.52491 -82.76561 36023 ft 452 kts 160°
2026-04-24 19:18 33.46625 -82.73868 36027 ft 451 kts 160°
2026-04-24 19:19 33.40794 -82.71195 36023 ft 451 kts 160°
2026-04-24 19:19 33.34933 -82.68506 36017 ft 451 kts 160°
2026-04-24 19:20 33.29081 -82.65821 36008 ft 451 kts 160°
2026-04-24 19:20 33.23221 -82.63146 35999 ft 450 kts 160°
2026-04-24 19:21 33.17366 -82.60476 35991 ft 450 kts 160°
2026-04-24 19:21 33.11511 -82.57804 35982 ft 450 kts 160°
2026-04-24 19:22 33.05664 -82.55137 35981 ft 450 kts 160°
2026-04-24 19:22 32.99805 -82.52479 35981 ft 450 kts 160°
2026-04-24 19:23 32.93944 -82.49822 35998 ft 451 kts 160°
2026-04-24 19:23 32.88122 -82.47176 35988 ft 450 kts 160°
2026-04-24 19:24 32.82256 -82.44524 35988 ft 450 kts 160°
2026-04-24 19:24 32.76403 -82.41880 35997 ft 450 kts 160°
2026-04-24 19:25 32.70547 -82.39234 35996 ft 449 kts 161°
2026-04-24 19:25 32.64744 -82.36622 35983 ft 449 kts 161°
2026-04-24 19:26 32.58917 -82.34003 35992 ft 448 kts 161°
2026-04-24 19:26 32.53097 -82.31385 35985 ft 447 kts 161°
2026-04-24 19:27 32.47282 -82.28775 35983 ft 447 kts 161°
2026-04-24 19:27 32.41469 -82.26168 35992 ft 446 kts 161°
2026-04-24 19:28 32.35654 -82.23573 35985 ft 447 kts 161°
2026-04-24 19:28 32.29844 -82.20976 35993 ft 446 kts 161°
2026-04-24 19:29 32.21141 -82.17076 35990 ft 446 kts 161°
2026-04-24 19:30 32.15333 -82.14500 35992 ft 446 kts 161°
2026-04-24 19:30 32.09526 -82.11926 35981 ft 446 kts 161°
2026-04-24 19:31 32.03722 -82.09342 35991 ft 446 kts 161°
2026-04-24 19:31 31.97914 -82.06763 35996 ft 446 kts 161°
2026-04-24 19:32 31.92101 -82.04201 35989 ft 446 kts 162°
2026-04-24 19:32 31.86076 -82.02778 35986 ft 440 kts 181°
2026-04-24 19:33 31.80056 -82.03631 35974 ft 435 kts 195°
2026-04-24 19:33 31.74167 -82.05288 35973 ft 435 kts 195°
2026-04-24 19:34 31.68273 -82.06950 35970 ft 436 kts 195°
2026-04-24 19:34 31.62411 -82.08595 35992 ft 436 kts 195°
2026-04-24 19:35 31.56501 -82.10242 35994 ft 436 kts 195°
2026-04-24 19:35 31.50596 -82.11882 35991 ft 436 kts 195°
2026-04-24 19:36 31.44689 -82.13532 36000 ft 436 kts 195°
2026-04-24 19:36 31.38781 -82.15175 35988 ft 436 kts 195°
2026-04-24 19:37 31.32880 -82.16806 35990 ft 436 kts 195°
2026-04-24 19:37 31.26975 -82.18445 35990 ft 436 kts 195°
2026-04-24 19:38 31.21072 -82.20084 35993 ft 436 kts 195°
2026-04-24 19:38 31.15171 -82.21717 36009 ft 436 kts 195°
2026-04-24 19:39 31.09268 -82.23348 36015 ft 436 kts 195°
2026-04-24 19:39 31.03404 -82.24972 36040 ft 436 kts 195°
2026-04-24 19:40 30.97407 -82.26149 36049 ft 438 kts 189°
2026-04-24 19:40 30.91358 -82.27040 36081 ft 438 kts 189°
2026-04-24 19:41 30.85304 -82.27925 36079 ft 439 kts 189°
2026-04-24 19:41 30.79245 -82.28815 36094 ft 439 kts 189°
2026-04-24 19:42 30.73188 -82.29704 36102 ft 439 kts 189°
2026-04-24 19:42 30.67129 -82.30597 36096 ft 439 kts 189°
2026-04-24 19:43 30.61050 -82.31410 36097 ft 441 kts 184°
2026-04-24 19:43 30.54931 -82.30679 36101 ft 445 kts 172°
2026-04-24 19:44 30.48836 -82.29441 36114 ft 445 kts 172°
2026-04-24 19:44 30.42720 -82.28222 36118 ft 445 kts 173°
2026-04-24 19:44 30.39666 -82.27615 35829 ft 447 kts 172°
2026-04-24 19:45 30.36600 -82.27003 35305 ft 445 kts 172°
2026-04-24 19:45 30.33552 -82.26390 34835 ft 443 kts 172°
2026-04-24 19:45 30.30524 -82.25780 34359 ft 441 kts 172°
2026-04-24 19:45 30.27541 -82.25180 33832 ft 439 kts 172°
2026-04-24 19:46 30.24542 -82.24576 33355 ft 436 kts 172°
2026-04-24 19:46 30.21564 -82.23979 32875 ft 433 kts 172°
2026-04-24 19:46 30.18600 -82.23387 32407 ft 429 kts 172°
2026-04-24 19:46 30.15662 -82.22806 31933 ft 427 kts 173°
2026-04-24 19:47 30.12746 -82.22235 31482 ft 424 kts 173°
2026-04-24 19:47 30.09844 -82.21664 31044 ft 422 kts 173°
2026-04-24 19:47 30.06963 -82.21092 30601 ft 420 kts 173°
2026-04-24 19:47 30.04086 -82.20522 30163 ft 418 kts 173°
2026-04-24 19:48 30.01225 -82.19955 29692 ft 416 kts 173°
2026-04-24 19:48 29.98382 -82.19390 29275 ft 413 kts 173°
2026-04-24 19:48 29.92789 -82.18280 28455 ft 407 kts 173°
2026-04-24 19:49 29.87226 -82.17178 27646 ft 403 kts 173°
2026-04-24 19:49 29.81706 -82.16081 26824 ft 401 kts 173°
2026-04-24 19:50 29.73485 -82.14441 25563 ft 399 kts 173°
2026-04-24 19:50 29.70750 -82.13897 25123 ft 399 kts 173°
2026-04-24 19:51 29.65275 -82.12809 24233 ft 399 kts 173°
2026-04-24 19:51 29.62541 -82.12269 23784 ft 400 kts 173°
2026-04-24 19:52 29.57082 -82.11187 22948 ft 395 kts 173°
2026-04-24 19:52 29.54384 -82.10651 22426 ft 395 kts 173°
2026-04-24 19:52 29.51694 -82.10118 22127 ft 389 kts 173°
2026-04-24 19:52 29.49037 -82.09593 21686 ft 387 kts 173°
2026-04-24 19:53 29.46387 -82.09070 21230 ft 385 kts 173°
2026-04-24 19:53 29.43755 -82.08548 20786 ft 383 kts 173°
2026-04-24 19:53 29.38565 -82.07517 19936 ft 379 kts 173°
2026-04-24 19:54 29.35976 -82.07007 19511 ft 377 kts 173°
2026-04-24 19:54 29.33394 -82.06498 19101 ft 375 kts 173°
2026-04-24 19:54 29.30856 -82.05833 18708 ft 375 kts 163°
2026-04-24 19:54 29.28509 -82.04576 18498 ft 369 kts 153°
2026-04-24 19:55 29.27752 -82.04093 18456 ft 365 kts 153°
2026-04-24 19:55 29.24108 -82.01787 17982 ft 356 kts 153°
2026-04-24 19:55 29.21948 -82.00429 17610 ft 353 kts 153°
2026-04-24 19:55 29.19801 -81.99085 17238 ft 350 kts 153°
2026-04-24 19:56 29.17671 -81.97751 16876 ft 348 kts 153°
2026-04-24 19:56 29.15552 -81.96424 16515 ft 345 kts 153°
2026-04-24 19:56 29.13450 -81.95109 16162 ft 343 kts 153°
2026-04-24 19:56 29.11368 -81.93803 15818 ft 340 kts 153°
2026-04-24 19:57 29.09300 -81.92503 15465 ft 338 kts 153°
2026-04-24 19:57 29.07263 -81.91168 15128 ft 336 kts 147°
2026-04-24 19:57 29.05471 -81.89461 14791 ft 335 kts 137°
2026-04-24 19:57 29.03778 -81.87638 14459 ft 333 kts 137°
2026-04-24 19:58 29.02097 -81.85833 14140 ft 331 kts 137°
2026-04-24 19:58 29.00429 -81.84041 13822 ft 328 kts 137°
2026-04-24 19:58 28.98767 -81.82257 13454 ft 327 kts 137°
2026-04-24 19:58 28.97291 -81.80336 13100 ft 325 kts 128°
2026-04-24 19:59 28.95928 -81.78306 12738 ft 324 kts 128°
2026-04-24 19:59 28.94548 -81.76255 12383 ft 322 kts 128°
2026-04-24 19:59 28.93186 -81.74236 12033 ft 320 kts 128°
2026-04-24 19:59 28.91828 -81.72227 11686 ft 319 kts 128°
2026-04-24 20:00 28.90478 -81.70230 11345 ft 317 kts 128°
2026-04-24 20:00 28.89134 -81.68242 11002 ft 315 kts 128°
2026-04-24 20:00 28.88248 -81.66934 10784 ft 314 kts 128°
2026-04-24 20:00 28.86915 -81.64961 10460 ft 313 kts 128°
2026-04-24 20:01 28.85592 -81.63003 10142 ft 311 kts 128°
2026-04-24 20:01 28.84275 -81.61052 9825 ft 309 kts 128°
2026-04-24 20:01 28.82969 -81.59119 9487 ft 307 kts 128°
2026-04-24 20:01 28.81671 -81.57197 9233 ft 302 kts 128°
2026-04-24 20:02 28.80413 -81.55331 9095 ft 293 kts 128°
2026-04-24 20:02 28.79192 -81.53520 8953 ft 284 kts 127°
2026-04-24 20:02 28.78062 -81.51695 8715 ft 280 kts 124°
2026-04-24 20:02 28.77001 -81.49837 8429 ft 278 kts 123°
2026-04-24 20:03 28.75969 -81.47978 8143 ft 276 kts 123°
2026-04-24 20:03 28.74940 -81.46112 7601 ft 285 kts 123°
2026-04-24 20:03 28.73860 -81.44149 6857 ft 301 kts 120°
2026-04-24 20:03 28.72982 -81.41921 6110 ft 315 kts 109°
2026-04-24 20:04 28.72445 -81.39501 5669 ft 314 kts 100°
2026-04-24 20:04 28.72114 -81.37051 5306 ft 310 kts 104°
2026-04-24 20:04 28.71256 -81.34872 5164 ft 297 kts 126°
2026-04-24 20:04 28.69824 -81.33228 4918 ft 289 kts 146°
2026-04-24 20:05 28.68065 -81.32276 4679 ft 282 kts 163°
2026-04-24 20:05 28.66201 -81.31640 4433 ft 277 kts 163°
2026-04-24 20:05 28.64371 -81.31011 4175 ft 272 kts 163°
2026-04-24 20:05 28.62564 -81.30389 3867 ft 271 kts 163°
2026-04-24 20:06 28.60757 -81.29766 3492 ft 272 kts 163°
2026-04-24 20:06 28.58956 -81.29145 3052 ft 268 kts 163°
2026-04-24 20:06 28.57196 -81.28548 2616 ft 260 kts 166°
2026-04-24 20:06 28.55431 -81.28364 2238 ft 249 kts 180°
2026-04-24 20:07 28.54315 -81.28356 2021 ft 234 kts 180°
2026-04-24 20:07 28.52271 -81.28339 1648 ft 206 kts 180°
2026-04-24 20:07 28.50905 -81.28325 1401 ft 188 kts 180°
2026-04-24 20:07 28.49645 -81.28312 1138 ft 175 kts 179°
2026-04-24 20:08 28.48496 -81.28300 956 ft 155 kts 179°
2026-04-24 20:08 28.47464 -81.28290 754 ft 151 kts 181°
2026-04-24 20:08 28.46406 -81.28278 546 ft 151 kts 180°
2026-04-24 20:08 28.45373 -81.28267 353 ft 146 kts 181°
2026-04-24 20:09 28.44366 -81.28256 153 ft 143 kts 181°
2026-04-24 20:09 28.43477 -81.28259 101 ft 97 kts 176°
2026-04-24 20:09 28.43067 -81.28225 101 ft 38 kts 180°
2026-04-24 20:09 28.42814 -81.28232 104 ft 36 kts 182°
2026-04-24 20:10 28.42637 -81.28253 105 ft 10 kts 214°
2026-04-24 20:10 28.42575 -81.28294 107 ft 11 kts 203°
2026-04-24 20:10 28.42509 -81.28339 107 ft 12 kts 237°
2026-04-24 20:10 28.42495 -81.28448 106 ft 15 kts 259°
2026-04-24 20:11 28.42455 -81.28570 106 ft 18 kts 249°
2026-04-24 20:11 28.42408 -81.28710 104 ft 21 kts 249°
2026-04-24 20:11 28.42367 -81.28860 107 ft 20 kts 252°
2026-04-24 20:11 28.42320 -81.29021 107 ft 22 kts 251°
2026-04-24 20:12 28.42283 -81.29143 107 ft 14 kts 256°
2026-04-24 20:12 28.42288 -81.29224 105 ft 1 kts 289°
2026-04-24 20:12 28.42297 -81.29260 105 ft 8 kts 281°
2026-04-24 20:12 28.42292 -81.29332 104 ft 10 kts 256°
2026-04-24 20:13 28.42283 -81.29424 103 ft 14 kts 268°
2026-04-24 20:13 28.42282 -81.29557 99 ft 19 kts 268°
2026-04-24 20:13 28.42278 -81.29714 100 ft 20 kts 272°
2026-04-24 20:13 28.42330 -81.29794 102 ft 12 kts 341°
2026-04-24 20:14 28.42367 -81.29870 103 ft 13 kts 270°
2026-04-24 20:14 28.42362 -81.29977 104 ft 14 kts 268°
2026-04-24 20:14 28.42358 -81.30097 104 ft 17 kts 270°
2026-04-24 20:14 28.42431 -81.30121 103 ft 12 kts 28°
2026-04-24 20:15 28.42482 -81.30083 103 ft 6 kts 25°
2026-04-24 20:15 28.42506 -81.30069 103 ft 2 kts 27°
2026-04-24 20:15 28.42522 -81.30059 103 ft 1 kts 28°
2026-04-24 20:15 28.42528 -81.30056 103 ft 2 kts 32°
2026-04-24 20:16 28.42531 -81.30053 103 ft 0 kts 32°